Flag for U.S.A. Weather past 2 weeks in Santa Rosa, California, U.S.A.

Now
56 °F

Fog.


Feels Like: 56 °F
Forecast: 54 / 64 °F
Wind: No wind

Location: Santa Rosa Sonoma County Airport

Current Time: Dec 21, 2014 at 9:36:17 AM

Latest Report: Dec 21, 2014 at 8:53 AM


Visibility: 2 mi

Pressure: 30.27 "Hg

Humidity: 97%

Dew point: 55 °F

Location of Santa RosaLocation

Historic Weather in Santa Rosa — Graph

°F

Santa Rosa temperature yesterday

Maximum temperature yesterday: 57 °F (at 2:53 PM)
Minimum temperature yesterday: 52 °F (at 5:53 AM)
Average temperature yesterday: 54 °F

Past Weeks' High & Low Weather Summary

 TemperatureHumidityPressure
High63 °F (Dec 6, 2:53 PM)100% (Dec 6, 7:00 AM)30.25 "Hg (Dec 6, 7:00 AM)
Low42 °F (Dec 13, 7:53 AM)64% (Dec 14, 12:53 PM)29.42 "Hg (Dec 11, 5:53 AM)
Average53 °F94%30.01 "Hg
* Reported Dec 6 7:00 AM — Dec 21 7:53 AM, Santa Rosa, Weather by CustomWeather, © 2014

Note: Actual official high and low records may vary slightly from our data, if they occured in-between our weather recording intervals... More about our weather records

Advertising

Santa Rosa weather history for previous 24 hours

 ConditionsComfort  
Time TempWeatherWind HumidityBarometerVisibility
7:53 AM
Dec 21
55 °FLight rain. Fog.No wind100%30.25 "Hg5 mi
6:53 AM55 °FFog.No wind100%30.23 "Hg6 mi
5:53 AM55 °FLight rain. Fog.No wind100%30.24 "Hg6 mi
5:01 AM55 °FLight rain. Fog.No wind100%30.24 "Hg3 mi
4:53 AM55 °FLight rain. Fog.No wind100%30.22 "Hg1 mi
3:53 AM55 °FFog.No wind100%30.22 "Hg1 mi
2:53 AM55 °FLight rain. Fog.No wind100%30.22 "Hg1 mi
2:03 AM55 °FFog.No wind100%30.24 "Hg1 mi
1:53 AM55 °FFog.No wind100%30.22 "Hg1 mi
1:02 AM55 °FFog.No wind100%30.23 "Hg2 mi
12:53 AM55 °FFog.No wind100%30.21 "Hg2 mi
11:53 PM
Dec 20
55 °FFog.3 mph96%30.20 "Hg2 mi
10:53 PM55 °FFog.3 mph96%30.21 "Hg5 mi
9:53 PM56 °FFog.No wind97%30.19 "Hg4 mi
8:53 PM55 °FLight rain. Fog.No wind100%30.19 "Hg4 mi
7:53 PM55 °FLight rain. Fog.No wind96%30.18 "Hg3 mi
7:01 PM54 °FLight rain. Fog.5 mph100%30.19 "Hg2 mi
6:02 PM55 °FLight rain. Fog.3 mph94%30.19 "Hg2 mi
5:55 PM55 °FLight rain. Fog.5 mph94%30.18 "Hg2 mi
4:53 PM55 °FLight rain. Fog.6 mph96%30.16 "Hg2 mi
3:53 PM56 °FLight rain. Fog.5 mph93%30.16 "Hg2 mi
2:53 PM57 °FFog.5 mph90%30.14 "Hg4 mi
1:53 PM56 °FFog.5 mph93%30.14 "Hg4 mi
12:53 PM55 °FLight rain. Fog.No wind96%30.16 "Hg1 mi
11:53 AM55 °FLight rain. Fog.No wind96%30.16 "Hg1 mi
10:53 AM55 °FFog.3 mph93%30.18 "Hg2 mi
9:53 AM54 °FFog.6 mph93%30.16 "Hg2 mi
Weather by CustomWeather, © 2014

See weather overviewHow to use our weather pages